Skip Page Navigation
NASA JPL Caltech
NASA Logo - Jet Propulsion Laboratory + View the NASA Portal
+ Near-Earth Object (NEO) Program
Search JPL
JPL Home Earth Solar System Stars & Galaxies Technology
JPL Solar System Dynamics
BODIES ORBITS EPHEMERIDES TOOLS PHYSICAL DATA DISCOVERY FAQ SITE MAP
JPL Small-Body Database Browser
Search: [ help ]  
300163 (2006 VW139)
Classification: Main-belt Asteroid          SPK-ID: 2300163
Ephemeris | Orbit Diagram | Orbital Elements | Physical Parameters | Discovery Circumstances | Close-Approach Data ]

[ show orbit diagram ]
Orbital Elements at Epoch 2457000.5 (2014-Dec-09.0) TDB
Reference: JPL 4 (heliocentric ecliptic J2000)
 Element Value Uncertainty (1-sigma)   Units 
e .2011009624241769 1.3022e-07  
a 3.04758467381278 4.5541e-08 AU
q 2.434712462839859 3.8333e-07 AU
i 3.240622479080197 1.121e-05 deg
node 83.1924254192128 0.00020939 deg
peri 281.2058347270669 0.00021387 deg
M 230.1858109036799 3.7711e-05 deg
tp 2457701.231695888118
(2016-Nov-08.73169589)
0.00021461 JED
period 1943.26531079393
5.32
4.3558e-05
1.193e-07
d
yr
n .1852551980423715 4.1525e-09 deg/d
Q 3.660456884785701 5.4699e-08 AU
  Orbit Determination Parameters
   # obs. used (total)      150  
   data-arc span      5373 days (14.71 yr)  
   first obs. used      2000-09-03  
   last obs. used      2015-05-21  
   planetary ephem.      DE431  
   SB-pert. ephem.      SB431-BIG16  
   condition code      0  
   fit RMS      .57941  
   data source      ORB  
   producer      Otto Matic  
   solution date      2015-Jun-05 03:21:18  

Additional Information
 Earth MOID = 1.43546 AU 
 T_jup = 3.204 
[ show covariance matrix ]

Ephemeris | Orbit Diagram | Orbital Elements | Physical Parameters | Discovery Circumstances | Close-Approach Data ]

Physical Parameter Table
Parameter Symbol Value Units Sigma Reference Notes
absolute magnitude H 16.1 mag n/a MPO251846  

300163 (2006 VW139)          Discovered 2006-Nov-15 by Spacewatch at Kitt Peak
Reference: 20111012/Numbers.arcLast Updated: 2011-10-13

[ show close-approach data ]
Alternate Designations
 2006 VW139 = 288P 
Ephemeris | Orbit Diagram | Orbital Elements | Physical Parameters | Discovery Circumstances | Close-Approach Data ]
ABOUT SSD CREDITS/AWARDS PRIVACY/COPYRIGHT GLOSSARY LINKS
FirstGov 2015-Jul-02 03:34 UT
(server date/time)  
NASA Home Page
Site Manager:   Ryan S. Park
Webmaster  Alan B. Chamberlin